User: anonymous   Login
Location: Unspecified
(0.0000°N, 0.0000°E)
Time: 04:39:59
(UTC+00:00)
Language:

ESSA 5 - Orbit

View from above orbital plane
View from above orbital plane
View from above satellite
View from above satellite

Ground track
Ground track

The orbit data is extracted from the following two-line orbital elements,

1  2757U 67036A   18020.62179091 -.00000044 +00000-0 +18617-4 0  9995
2  2757 101.8860 078.4327 0043115 189.5120 325.5728 12.68498349349763
Epoch (UTC): 20 January 2018 14:55:22
Eccentricity: 0.0043115
inclination: 101.8860°
perigee height: 1354 km
apogee height: 1421 km
right ascension of ascending node: 78.4327°
argument of perigee: 189.5120°
revolutions per day: 12.68498349
mean anomaly at epoch: 325.5728°
orbit number at epoch: 34976

The dashed part of the orbit path shows where the satellite is in the earth's shadow,  

DLR